Glenwood, MN

4:08 PM CDT on August 19, 2017 (GMT -0500)
Glenwood Municipal

Weather History for KGHW - November, 2012

Change the Weather History Date:

Friday, November 30, 2012

  Actual Average Record
Temperature  
Mean Temperature 28 °F -  
Max Temperature 32 °F 33 °F 50 °F (1973)
Min Temperature 24 °F 16 °F -18 °F (1964)
Degree Days  
Heating Degree Days 37    
Moisture  
Dew Point 27 °F    
Average Humidity 93    
Maximum Humidity 100    
Minimum Humidity 86    
Precipitation  
Precipitation 0.00 in - - ()
Sea Level Pressure  
Sea Level Pressure 30.07 in    
Wind  
Wind Speed 13 mph (ESE)    
Max Wind Speed 20 mph    
Max Gust Speed 23 mph    
Visibility 5 miles    
Events      
Averages and records for this station are not official NWS values.
T = Trace of Precipitation, MM = Missing Value Source: NWS Daily Summary

Daily Weather History Graph

Daily Weather History Graph

Search for Another Location

Airport or City:

Trip Planner

Search our weather history database for the weather conditions in past years. The results will help you decide how hot, cold, wet, or windy it might be!

Date:

Astronomy

Nov. 30, 2012 Rise Set
Actual Time 7:40 AM CST 4:39 PM CST
Civil Twilight 7:07 AM CST 5:12 PM CST
Nautical Twilight 6:30 AM CST 5:49 PM CST
Astronomical Twilight 5:54 AM CST 6:25 PM CST
Moon 6:35 PM CST (11/30) 9:13 AM CST (11/30)
Length of Visible Light 10h 05m
Length of Day
8h 58m
Waning Gibbous, 96% of the Moon is Illuminated
Nov 30
Waning Gibbous
Dec 6
Last Quarter
Dec 13
New
Dec 19
First Quarter
Dec 28
Full

Hourly Weather History & Observations

Time (CST) Temp. Windchill Dew Point Humidity Pressure Visibility Wind Dir Wind Speed Gust Speed Precip Events Conditions
12:13 AM 26.6 °F 13.8 °F 23.0 °F 86% 30.08 in 10.0 mi ENE 17.3 mph - N/A   Mostly Cloudy
12:34 AM 24.8 °F 11.9 °F 23.0 °F 93% 30.07 in 10.0 mi ENE 16.1 mph 21.9 mph N/A   Scattered Clouds
12:53 AM 24.8 °F 12.4 °F 23.0 °F 93% 30.08 in 10.0 mi ENE 15.0 mph 19.6 mph N/A   Mostly Cloudy
1:13 AM 24.8 °F 12.9 °F 23.0 °F 93% 30.09 in 10.0 mi ENE 13.8 mph 18.4 mph N/A   Overcast
1:34 AM 24.8 °F 12.4 °F 23.0 °F 93% 30.08 in 10.0 mi ENE 15.0 mph - N/A   Mostly Cloudy
1:53 AM 24.8 °F 12.9 °F 23.0 °F 93% 30.10 in 10.0 mi ENE 13.8 mph - N/A   Overcast
2:13 AM 24.8 °F 12.4 °F 23.0 °F 93% 30.11 in 10.0 mi ENE 15.0 mph 19.6 mph N/A   Overcast
2:34 AM 24.8 °F 12.4 °F 23.0 °F 93% 30.11 in 10.0 mi ENE 15.0 mph - N/A   Overcast
2:53 AM 24.8 °F 13.4 °F 23.0 °F 93% 30.11 in 10.0 mi NE 12.7 mph - N/A   Overcast
3:13 AM 24.8 °F 13.4 °F 23.0 °F 93% 30.11 in 10.0 mi ENE 12.7 mph 18.4 mph N/A   Overcast
3:53 AM 24.8 °F 11.9 °F 23.0 °F 93% 30.09 in 7.0 mi ENE 16.1 mph - N/A   Overcast
4:13 AM 24.8 °F 12.9 °F 23.0 °F 93% 30.09 in 7.0 mi ENE 13.8 mph - N/A   Overcast
4:34 AM 24.8 °F 12.4 °F 23.0 °F 93% 30.10 in 7.0 mi ENE 15.0 mph 20.7 mph N/A   Overcast
4:53 AM 26.6 °F 15.7 °F 24.8 °F 93% 30.10 in 7.0 mi ENE 12.7 mph - N/A   Overcast
5:13 AM 26.6 °F 15.7 °F 24.8 °F 93% 30.11 in 7.0 mi ENE 12.7 mph 18.4 mph N/A   Overcast
5:53 AM 26.6 °F 16.2 °F 24.8 °F 93% 30.11 in 5.0 mi ENE 11.5 mph - N/A   Overcast
6:13 AM 26.6 °F 16.8 °F 24.8 °F 93% 30.11 in 5.0 mi ENE 10.4 mph - N/A   Overcast
6:34 AM 26.6 °F 16.8 °F 24.8 °F 93% 30.12 in 5.0 mi ENE 10.4 mph - N/A   Overcast
6:53 AM 26.6 °F 16.8 °F 24.8 °F 93% 30.13 in 5.0 mi ENE 10.4 mph - N/A   Overcast
7:13 AM 26.6 °F 16.8 °F 24.8 °F 93% 30.12 in 4.0 mi East 10.4 mph - N/A   Overcast
7:34 AM 26.6 °F 15.2 °F 24.8 °F 93% 30.12 in 4.0 mi East 13.8 mph - N/A   Overcast
7:53 AM 26.6 °F 16.2 °F 24.8 °F 93% 30.12 in 4.0 mi East 11.5 mph - N/A   Overcast
8:13 AM 26.6 °F 16.8 °F 26.6 °F 100% 30.13 in 2.0 mi East 10.4 mph - N/A   Overcast
8:34 AM 26.6 °F 15.7 °F 26.6 °F 100% 30.12 in 2.0 mi East 12.7 mph - N/A   Overcast
8:53 AM 26.6 °F 16.8 °F 26.6 °F 100% 30.14 in 2.0 mi ESE 10.4 mph - N/A   Overcast
9:14 AM 28.4 °F 18.5 °F 26.6 °F 93% 30.13 in 1.8 mi ESE 11.5 mph - N/A   Overcast
9:33 AM 28.4 °F 19.1 °F 26.6 °F 93% 30.14 in 2.0 mi ESE 10.4 mph - N/A   Overcast
9:53 AM 28.4 °F 19.7 °F 26.6 °F 93% 30.14 in 2.0 mi East 9.2 mph - N/A   Overcast
10:14 AM 28.4 °F 19.7 °F 26.6 °F 93% 30.15 in 2.0 mi ESE 9.2 mph - N/A   Overcast
10:33 AM 28.4 °F 18.5 °F 28.4 °F 100% 30.15 in 2.5 mi ESE 11.5 mph - N/A   Overcast
10:53 AM 28.4 °F 20.4 °F 28.4 °F 100% 30.14 in 3.0 mi ESE 8.1 mph - N/A   Overcast
11:14 AM 30.2 °F 21.9 °F 28.4 °F 93% 30.14 in 3.0 mi ESE 9.2 mph - N/A   Overcast
11:33 AM 30.2 °F 20.8 °F 28.4 °F 93% 30.13 in 2.5 mi ESE 11.5 mph - N/A   Overcast
11:53 AM 30.2 °F 21.3 °F 28.4 °F 93% 30.12 in 3.0 mi ESE 10.4 mph - N/A   Overcast
12:14 PM 30.2 °F 22.6 °F 28.4 °F 93% 30.12 in 3.0 mi SE 8.1 mph - N/A   Overcast
12:33 PM 30.2 °F 21.9 °F 28.4 °F 93% 30.10 in 3.0 mi ESE 9.2 mph - N/A   Overcast
12:53 PM 30.2 °F 21.9 °F 28.4 °F 93% 30.09 in 3.0 mi ESE 9.2 mph - N/A   Overcast
1:14 PM 30.2 °F 23.4 °F 28.4 °F 93% 30.10 in 3.0 mi SE 6.9 mph - N/A   Overcast
1:33 PM 30.2 °F 21.9 °F 28.4 °F 93% 30.08 in 3.0 mi ESE 9.2 mph - N/A   Overcast
1:53 PM 30.2 °F 21.3 °F 28.4 °F 93% 30.07 in 3.0 mi ESE 10.4 mph - N/A   Overcast
2:13 PM 30.2 °F 21.9 °F 28.4 °F 93% 30.09 in 3.0 mi ESE 9.2 mph - N/A   Overcast
2:33 PM 30.2 °F 20.8 °F 28.4 °F 93% 30.09 in 3.0 mi East 11.5 mph - N/A   Overcast
2:54 PM 30.2 °F 19.8 °F 28.4 °F 93% 30.07 in 3.0 mi ESE 13.8 mph - N/A   Overcast
3:13 PM 30.2 °F 21.3 °F 28.4 °F 93% 30.06 in 3.0 mi SE 10.4 mph - N/A   Overcast
3:33 PM 30.2 °F 21.3 °F 28.4 °F 93% 30.05 in 3.0 mi ESE 10.4 mph - N/A   Overcast
3:54 PM 30.2 °F 21.3 °F 28.4 °F 93% 30.07 in 3.0 mi ESE 10.4 mph - N/A   Overcast
4:13 PM 30.2 °F 21.3 °F 28.4 °F 93% 30.06 in 3.0 mi ESE 10.4 mph - N/A   Overcast
4:33 PM 30.2 °F 21.9 °F 28.4 °F 93% 30.05 in 4.0 mi ESE 9.2 mph - N/A   Overcast
4:54 PM 30.2 °F 20.2 °F 28.4 °F 93% 30.04 in 4.0 mi ESE 12.7 mph - N/A   Overcast
5:13 PM 30.2 °F 20.8 °F 28.4 °F 93% 30.03 in 4.0 mi ESE 11.5 mph - N/A   Overcast
5:33 PM 30.2 °F 20.2 °F 28.4 °F 93% 30.03 in 4.0 mi ESE 12.7 mph - N/A   Overcast
5:54 PM 30.2 °F 19.8 °F 28.4 °F 93% 30.04 in 4.0 mi SE 13.8 mph 19.6 mph N/A   Overcast
6:13 PM 30.2 °F 19.8 °F 28.4 °F 93% 30.02 in 4.0 mi ESE 13.8 mph - N/A   Overcast
6:34 PM 30.2 °F 20.2 °F 30.2 °F 100% 30.02 in 3.0 mi SE 12.7 mph - N/A   Overcast
6:54 PM 32.0 °F 21.6 °F 30.2 °F 93% 30.01 in 4.0 mi SE 15.0 mph - N/A   Overcast
7:13 PM 32.0 °F 22.1 °F 30.2 °F 93% 29.99 in 4.0 mi ESE 13.8 mph - N/A   Overcast
7:34 PM 32.0 °F 21.6 °F 30.2 °F 93% 29.98 in 4.0 mi SE 15.0 mph - N/A   Overcast
7:54 PM 32.0 °F 21.2 °F 30.2 °F 93% 29.98 in 4.0 mi SE 16.1 mph 23.0 mph N/A   Overcast
8:13 PM 32.0 °F 20.1 °F 30.2 °F 93% 29.98 in 4.0 mi SE 19.6 mph - N/A   Overcast
8:34 PM 32.0 °F 21.2 °F 30.2 °F 93% 29.98 in 4.0 mi SE 16.1 mph 20.7 mph N/A   Overcast
8:54 PM 32.0 °F 21.6 °F 30.2 °F 93% 29.96 in 4.0 mi SE 15.0 mph - N/A   Overcast
9:13 PM 32.0 °F 21.6 °F 30.2 °F 93% 29.97 in 4.0 mi SE 15.0 mph - N/A   Overcast
9:34 PM 32.0 °F 21.6 °F 30.2 °F 93% 29.96 in 4.0 mi SE 15.0 mph 21.9 mph N/A   Overcast
9:54 PM 32.0 °F 20.8 °F 30.2 °F 93% 29.96 in 4.0 mi ESE 17.3 mph 20.7 mph N/A   Overcast
10:13 PM 32.0 °F 21.6 °F 30.2 °F 93% 29.95 in 4.0 mi SE 15.0 mph - N/A   Overcast
10:34 PM 32.0 °F 21.6 °F 30.2 °F 93% 29.96 in 4.0 mi SE 15.0 mph - N/A   Overcast
10:54 PM 32.0 °F 22.5 °F 30.2 °F 93% 29.96 in 3.0 mi SE 12.7 mph 19.6 mph N/A   Overcast
11:13 PM 32.0 °F 22.1 °F 30.2 °F 93% 29.95 in 3.0 mi SE 13.8 mph - N/A   Overcast
11:34 PM 32.0 °F 21.6 °F 30.2 °F 93% 29.95 in 3.0 mi SE 15.0 mph - N/A   Overcast
11:53 PM 32.0 °F 21.6 °F 30.2 °F 93% 29.95 in 3.0 mi SE 15.0 mph - N/A   Overcast